Location: Melbourne
(37.8170°S, 144.9670°E)
Time: 06:34:26
(UTC+10:00)

CZ-3 R/B - Visible Passes

Search period start: 27 June 2017 00:00
Search period end: 07 July 2017 00:00
Orbit: 248 x 10518 km, 28.4° (Epoch: 25 June)

Date Brightness Start Highest point End Pass type
(mag) Time Alt. Az. Time Alt. Az. Time Alt. Az.
27 Jun 4.5 05:04:45 10° NNW 05:07:34 11° N 05:09:44 10° NNE visible
28 Jun 4.0 05:47:36 10° NNW 05:51:27 13° N 05:54:01 10° NNE visible
29 Jun 5.5 02:41:46 10° N 02:45:20 10° N 02:48:17 10° NNE visible
29 Jun 3.5 06:31:16 10° NNW 06:34:55 14° N 06:37:13 10° NNE visible
30 Jun 5.0 03:21:54 10° NNW 03:30:57 14° N 03:36:26 10° NE visible
01 Jul 4.7 04:05:29 10° NNW 04:15:40 17° N 04:21:01 10° NE visible
02 Jul 5.8 00:59:17 10° N 01:03:26 10° NNE 01:07:00 10° NNE visible
02 Jul 4.2 04:50:00 10° NW 04:59:45 19° N 05:04:25 10° NE visible
03 Jul 5.5 01:35:12 10° N 01:51:09 14° NNE 02:00:15 10° NE visible
03 Jul 3.6 05:34:48 10° NW 05:43:17 21° N 05:47:13 10° NE visible
04 Jul 5.1 02:18:22 10° NNW 02:37:21 18° NNE 02:46:18 10° NE visible
04 Jul 3.1 06:19:35 10° NW 06:26:25 22° N 06:29:37 10° NE visible
05 Jul 4.9 03:03:27 10° NNW 03:22:31 22° N 03:30:25 10° NE visible
05 Jul 2.6 07:04:07 10° WNW 07:09:12 21° N 07:11:46 10° NE visible
05 Jul 5.9 23:48:25 10° N 00:06:36 12° NNE 00:18:25 10° NE visible
06 Jul 4.4 03:49:20 10° NW 04:06:52 25° N 04:13:36 10° ENE visible
